Showing default

YAOGAN-39 03C, 57990

Orbit data source: Space-Track

YAOGAN-39 03C, 57990 is a payload satellite owned by PLA GAD (CN) in LEO that was launched on Thu, 05 Oct 2023 UTC via a CHANG ZHENG 2D launch vehicle from the Xichang Space Center, China (XSC). Payload-class satellites include a variety of spacecraft equipped with specific instruments for various scientific and technological missions. These include communications satellites like Starlink; space stations such as the ISS; scientific satellites like the Hubble; Earth observation satellites from companies like Planet Labs, Umbra, and HawkEye 360; GPS; miniature CubeSats for education and research; and military/defense satellites.

Loading next visibility...
Identifier
57990, 2023-152E
Orbit
LEO
Country
Flag of CNCN / PRC
Related business
Manufacturer
DFH
Mission
Operational Defense Sigint
Bus & Motor
Unknown
Mass
~300 kg wet, ~300 kg dry
Launch date (UTC)
2023-10-05 (3 years ago)
Launch vehicle
CHANG ZHENG 2D
Launch site
Xichang Space Center, China (XSC)
Object type
Payload
Rocket body
Debris
Shape & HBR
Box + 2 Pan, 2.5 m
Radar Cross Section
11.063 m², Large (>1 m²)

Expand to show TLE details & history
Last TLE update: 5 days ago

TLE from 5 days ago
0 YAOGAN-39 03C
1 57990U 23152E   26168.06251293  .00005207  00000-0  25117-3 0  9997
2 57990  34.9910 296.8097 0009273 142.4571 217.6790 15.18045951150146
Epoch: 2026-06-17T01:30Z
TLE epoch observation values (Epoch: 2026-06-17T01:30:01.117Z)
Latitude
-0.00005°
Longitude
8.97939°
Altitude
515.713 km
Speed
7.605 km/s
True Right ascension
19h 47m 14s
True Declination
0° 00' 00"
Sunlit
Object was in full shadow at epoch
Visualization orbit readout
Latitude
Unknown
Longitude
Unknown
Altitude
Unknown
Speed
Unknown
Apparent Right ascension
Unknown
Apparent Declination
Unknown
Sunlit
N/A
Visualization observer readout
Local Sidereal Time
21:31:00
Azimuth
Unknown
Elevation
Unknown
Doppler factor
Unknown
Orbital elements
Apogee altitude
521.383 km
Perigee altitude
508.599 km
Semi-major axis
6,893.128 km
Eccentricity
0.00093
Inclination
34.991°
RAAN
296.8097°
Arg. of periapsis
142.4571°
True anomaly
217.61411°
Mean anomaly
217.679°
Eccentric anomaly
217.64655°
Mean motion
3.79244 °/min
Orbital period
94.93 mins
BSTAR
0.00025117
Loading maneuver chart data...
Computing Atmospheric mass density...
Loading historical data...
Loading historical data...
Loading historical data...
Loading historical data...
Loading historical data...
Loading historical data...
Loading historical data...
Other satellites on launch #152 in the year 2023 (2023-10-05 UTC)

Documentation

Showing up to 5 results
|